FW5940 Weather Reports


Display with metric or nautical units.
time (UTC)temp
F
wind
direction
speed
MPH
gust
MPH
rain 1hr
in
rain 24hr
in
rain mn
in
humidity
%
barometer
mb
20240520152015 75 74 6.0 14.0 0.00 0.11 0.01 46 1007.9
20240520151015 75 76 5.0 11.0 0.00 0.11 0.01 46 1007.5
20240520150016 74 109 6.0 12.0 0.00 0.11 0.01 47 1007.7
20240520145015 74 95 5.0 14.0 0.00 0.11 0.01 47 1008.3
20240520144017 74 86 5.0 11.0 0.00 0.11 0.01 47 1009.0
20240520143016 75 66 5.0 12.0 0.00 0.11 0.01 47 1009.0
20240520142017 75 102 7.0 12.0 0.00 0.11 0.01 46 1009.2
20240520141016 75 111 5.0 12.0 0.00 0.11 0.01 47 1009.2
20240520140037 75 106 7.0 13.0 0.00 0.11 0.01 46 1009.2
20240520135016 75 70 6.0 13.0 0.00 0.11 0.01 49 1009.2
20240520134017 76 77 4.0 11.0 0.00 0.11 0.01 48 1009.3
20240520133016 75 84 4.0 9.0 0.00 0.11 0.01 47 1009.4
20240520132035 75 55 6.0 13.0 0.00 0.11 0.01 46 1009.6
20240520131017 75 51 7.0 12.0 0.00 0.11 0.01 47 1009.7
20240520130016 75 49 5.0 11.0 0.00 0.11 0.01 46 1009.9
20240520125017 75 34 3.0 7.0 0.00 0.11 0.01 47 1009.8
20240520124016 75 84 4.0 9.0 0.00 0.11 0.01 44 1009.8
20240520123018 75 74 3.0 9.0 0.00 0.11 0.01 45 1010.1
20240520122017 74 91 5.0 8.0 0.00 0.11 0.01 46 1010.3
20240520121016 74 123 6.0 11.0 0.00 0.11 0.01 50 1010.5
20240520120017 74 138 4.0 10.0 0.00 0.11 0.01 47 1010.9
20240520115016 74 71 4.0 9.0 0.00 0.11 0.01 48 1010.8
20240520114036 74 53 4.0 9.0 0.00 0.11 0.01 49 1010.8
20240520113016 74 67 4.0 10.0 0.00 0.11 0.01 50 1010.9
20240520112016 73 101 4.0 8.0 0.00 0.11 0.01 52 1010.9
20240520111017 73 95 4.0 9.0 0.00 0.11 0.01 52 1011.0
20240520110015 73 129 3.0 9.0 0.00 0.11 0.01 54 1011.0
20240520105039 72 71 3.0 8.0 0.00 0.11 0.01 52 1011.0
20240520104016 72 77 3.0 7.0 0.00 0.11 0.01 53 1011.1
20240520103020 71 84 3.0 8.0 0.00 0.11 0.01 54 1011.1
20240520102036 71 68 5.0 11.0 0.00 0.11 0.01 53 1011.3
20240520101036 70 50 3.0 8.0 0.00 0.11 0.01 56 1011.3
20240520100016 69 99 3.0 8.0 0.00 0.11 0.01 62 1011.3
20240520095015 69 104 5.0 9.0 0.00 0.11 0.01 60 1011.4
20240520094017 69 134 4.0 7.0 0.00 0.11 0.01 60 1011.4
20240520093016 68 119 4.0 10.0 0.00 0.11 0.01 61 1011.4
20240520092038 68 113 5.0 9.0 0.00 0.11 0.01 60 1011.5
20240520091016 69 90 3.0 8.0 0.00 0.11 0.01 62 1011.4
20240520090018 68 94 4.0 8.0 0.00 0.11 0.01 62 1011.5
20240520085016 68 48 2.0 5.0 0.00 0.11 0.01 66 1011.4
20240520084015 68 36 3.0 9.0 0.00 0.11 0.01 69 1011.4
20240520083017 66 22 3.0 8.0 0.00 0.11 0.01 71 1011.4
20240520082015 66 55 3.0 7.0 0.00 0.11 0.01 70 1011.4
20240520081016 65 3 2.0 5.0 0.00 0.11 0.01 72 1011.4
20240520080036 64 69 3.0 6.0 0.00 0.11 0.01 71 1011.4
20240520075017 63 113 1.0 3.0 0.00 0.11 0.01 71 1011.4
20240520074016 62 27 2.0 5.0 0.00 0.11 0.01 76 1011.4
20240520073015 61 298 2.0 4.0 0.00 0.11 0.01 77 1011.5
20240520072017 60 84 1.0 3.0 0.00 0.11 0.01 79 1011.6
20240520071016 59 139 0.0 2.0 0.00 0.11 0.01 83 1011.6
20240520070015 59 131 1.0 2.0 0.00 0.11 0.01 84 1011.6
20240520065016 58 131 1.0 2.0 0.00 0.11 0.01 85 1011.6
20240520064016 57 133 1.0 2.0 0.00 0.11 0.01 86 1011.6
20240520063016 56 137 0.0 2.0 0.00 0.11 0.01 87 1011.7
20240520062015 56 136 1.0 2.0 0.00 0.11 0.01 89 1011.6
20240520061017 55 146 1.0 3.0 0.00 0.11 0.01 90 1011.6
20240520060015 54 154 1.0 3.0 0.00 0.11 0.01 91 1011.7
20240520055015 53 120 1.0 2.0 0.00 0.11 0.01 91 1011.7
20240520054016 52 120 0.0 2.0 0.00 0.11 0.01 92 1011.8
20240520053017 51 321 0.0 1.0 0.00 0.11 0.01 92 1011.7
20240520052016 51 321 0.0 2.0 0.00 0.11 0.01 92 1011.7
20240520051015 50 325 0.0 2.0 0.00 0.11 0.01 92 1011.7
20240520050017 49 0.0 0.0 0.00 0.11 0.01 92 1011.7
20240520045015 48 343 0.0 1.0 0.00 0.11 0.01 92 1011.6
20240520044017 48 0.0 0.0 0.00 0.11 0.01 91 1011.7
20240520043016 48 0.0 0.0 0.00 0.11 0.01 91 1011.7
20240520042017 48 140 1.0 3.0 0.00 0.11 0.01 92 1011.7
20240520041017 48 149 1.0 3.0 0.00 0.11 0.01 91 1011.5
20240520040015 48 149 1.0 3.0 0.00 0.11 0.01 91 1011.7
20240520035017 48 145 2.0 3.0 0.00 0.11 0.01 92 1011.6
20240520034015 48 125 2.0 3.0 0.00 0.11 0.01 92 1011.6
20240520033015 48 111 3.0 6.0 0.00 0.11 0.01 92 1011.5
20240520032016 48 121 2.0 6.0 0.00 0.11 0.01 92 1011.5
20240520031037 47 167 1.0 2.0 0.00 0.11 0.01 91 1011.5
20240520030016 48 167 1.0 2.0 0.01 0.11 0.01 92 1011.6
20240520025036 48 167 1.0 2.0 0.01 0.11 0.01 91 1011.5
20240520024016 48 167 0.0 2.0 0.01 0.11 0.01 91 1011.6
20240520023118 49 167 0.0 1.0 0.01 0.11 0.01 91 1011.6
20240520022015 49 167 1.0 2.0 0.01 0.12 0.01 91 1011.6
20240520021016 49 170 2.0 4.0 0.01 0.12 0.01 91 1011.5
20240520020018 49 149 2.0 4.0 0.00 0.11 0.00 91 1011.5
20240520015017 49 0.0 0.0 0.00 0.11 0.00 91 1011.6
20240520014015 49 0.0 0.0 0.00 0.11 0.00 91 1011.7
20240520013015 50 133 0.0 1.0 0.00 0.11 0.00 91 1011.6
20240520012015 50 133 0.0 1.0 0.00 0.11 0.00 91 1011.7
20240520011016 50 133 0.0 1.0 0.00 0.11 0.00 91 1011.7
20240520010036 50 133 1.0 2.0 0.00 0.11 0.00 91 1011.6
20240520005036 50 133 0.0 1.0 0.00 0.11 0.00 91 1011.7
20240520004016 51 133 1.0 1.0 0.00 0.11 0.00 90 1011.6
20240520003015 51 133 0.0 2.0 0.00 0.11 0.00 91 1011.6
20240520002016 51 133 0.0 1.0 0.00 0.11 0.00 90 1011.6
20240520001018 52 133 0.0 1.0 0.00 0.11 0.00 90 1011.5
20240520000018 52 133 1.0 2.0 0.00 0.12 0.00 90 1011.6
20240519235035 52 133 1.0 2.0 0.00 0.13 0.00 90 1011.7
20240519234017 53 133 0.0 1.0 0.00 0.14 0.00 90 1011.8
20240519233016 54 133 1.0 2.0 0.00 0.14 0.00 90 1011.8
20240519232017 54 133 0.0 1.0 0.00 0.15 0.00 90 1012.0
20240519231159 54 138 2.0 3.0 0.00 0.16 0.00 90 1012.0
20240519230015 54 174 2.0 3.0 0.00 0.17 0.00 89 1012.0
20240519225017 54 180 3.0 6.0 0.00 0.17 0.00 89 1012.1
20240519224016 55 213 2.0 3.0 0.00 0.21 0.00 89 1012.2
20240519223016 55 199 4.0 6.0 0.00 0.25 0.00 89 1012.3
20240519222017 55 195 1.0 4.0 0.00 0.30 0.00 89 1012.4
20240519221016 55 243 3.0 4.0 0.01 0.34 0.00 89 1012.3
20240519220015 56 222 3.0 7.0 0.01 0.35 0.00 88 1012.2
20240519215015 56 194 2.0 6.0 0.02 0.36 0.35 88 1012.0
20240519214015 56 154 3.0 6.0 0.05 0.38 0.35 87 1011.8
20240519213015 56 150 4.0 7.0 0.05 0.43 0.35 87 1011.7
20240519212015 56 151 5.0 9.0 0.05 0.44 0.35 87 1011.6
20240519211016 57 151 5.0 11.0 0.04 0.43 0.35 86 1011.7
20240519210038 57 176 5.0 11.0 0.04 0.44 0.35 85 1011.8
20240519205015 58 205 7.0 16.0 0.03 0.48 0.34 84 1012.0
20240519204035 58 212 6.0 15.0 0.00 0.45 0.31 85 1011.8
20240519203016 58 189 4.0 6.0 0.00 0.46 0.31 85 1011.5
20240519202015 59 181 1.0 2.0 0.00 0.46 0.31 85 1011.6
20240519201017 59 181 2.0 4.0 0.00 0.46 0.31 85 1011.4
20240519200016 59 187 4.0 9.0 0.00 0.46 0.31 87 1011.4
20240519195017 59 187 1.0 2.0 0.00 0.46 0.31 87 1011.2
20240519194016 59 187 0.0 1.0 0.00 0.46 0.31 87 1011.0
20240519193015 59 187 1.0 2.0 0.00 0.46 0.31 87 1010.9
20240519192018 60 187 1.0 2.0 0.00 0.46 0.31 88 1010.9
20240519191036 60 227 1.0 3.0 0.00 0.46 0.31 88 1010.9
20240519190017 60 229 0.0 1.0 0.00 0.51 0.31 88 1010.7
20240519185016 61 200 2.0 4.0 0.00 0.51 0.31 88 1010.7
20240519184017 61 44 1.0 2.0 0.00 0.51 0.31 88 1010.6
20240519183036 60 44 0.0 2.0 0.00 0.51 0.31 88 1010.5
20240519182015 60 44 0.0 1.0 0.00 0.51 0.31 87 1010.5
20240519181017 61 44 0.0 1.0 0.00 0.51 0.31 87 1010.4
20240519180016 61 44 0.0 2.0 0.00 0.51 0.31 86 1010.4
20240519175017 61 44 1.0 3.0 0.00 0.51 0.31 85 1010.3
20240519174016 61 43 1.0 2.0 0.00 0.51 0.31 85 1010.3
20240519173020 61 39 2.0 3.0 0.00 0.51 0.31 83 1010.3
20240519172015 63 17 2.0 3.0 0.02 0.51 0.31 80 1010.4
20240519171035 64 351 3.0 4.0 0.06 0.51 0.31 79 1010.4
20240519170016 66 32 1.0 3.0 0.06 0.51 0.31 75 1010.2
20240519165016 66 24 1.0 1.0 0.06 0.51 0.31 76 1010.3
20240519164037 65 23 1.0 2.0 0.06 0.51 0.31 78 1010.3
20240519163017 64 345 2.0 4.0 0.06 0.51 0.31 78 1010.3
20240519162017 65 322 2.0 4.0 0.03 0.49 0.28 72 1010.6
20240519161015 67 50 1.0 2.0 0.00 0.46 0.25 60 1010.5
20240519160015 67 90 1.0 3.0 0.00 0.46 0.25 60 1010.4
20240519155016 68 77 2.0 4.0 0.00 0.46 0.25 59 1010.5
20240519154015 68 99 1.0 4.0 0.00 0.46 0.25 56 1010.5
20240519153038 68 50 1.0 3.0 0.00 0.46 0.25 58 1010.1